Other Public Products
Issued by NWS Grand Forks, ND

Home | Current Version | Previous Version | Graphics & Text | Print | Product List | Glossary On
Versions: 1 2 3 4 5 6 7 8 9 10 11 12 13 14 15 16 17 18 19 20 21 22 23 24 25 26 27 28 29 30 31 32 33 34 35 36 37 38 39 40 41 42 43 44 45 46 47 48 49 50
000
FPUS83 KFGF 010931
OPUFGF
PRAIRIE TO PINES WEATHER ROUNDUP
NATIONAL WEATHER SERVICE EASTERN NORTH DAKOTA/GRAND FORKS ND
400 AM CDT MON SEP 01 2014

 **SATELLITE DATA USED TO AUGMENT SKY COVER AT AUTOMATED STATIONS**
 *****  WEATHER ACROSS EASTERN NORTH DAKOTA  *****

CITY           SKY/WX    TMP DP  RH WIND       PRES   REMARKS
GRAND FORKS    PTCLDY    53  52  96 W5        29.66S
GRAND FORKS AF PTCLDY    54  54 100 NW8       29.67F
GRAND CITY NWS   N/A     43 N/A N/A MISG        N/A
BUXTON         NOT AVBL
DEVILS LAKE    MOCLDY    55  50  82 NW7       29.70S
FARGO          MOCLDY    56  54  93 NW7       29.68R
WAHPETON ARPT  CLOUDY    55  54  94 NW6       29.69S
$$

 *****  WEATHER ACROSS CENTRAL AND WESTERN NORTH DAKOTA  *****

CITY           SKY/WX    TMP DP  RH WIND       PRES   REMARKS
JAMESTOWN      CLOUDY    57  54  89 NW6       29.72S
BISMARCK       CLEAR     54  54 100 W3        29.79R
MINOT          CLEAR     52  49  89 SW6       29.75R
MINOT AFB      CLEAR     50  49  99 W8        29.74S
GARRISON         N/A     49  48  97 CALM      29.77R
WILLISTON      CLEAR     50  48  93 NW6       29.78F
DICKINSON      MOCLDY    53  47  79 W9        29.79F
HETTINGER      CLEAR     48  45  89 W6        29.85R
$$

 *****  OTHER OBSERVATIONS NORTHEAST NORTH DAKOTA  *****

CITY           SKY/WX    TMP DP  RH WIND       PRES   REMARKS
WALHALLA       PTSUNNY   50  50 100 CALM      29.67F
LANGDON        FAIR      50  50 100 W6        29.69F FOG
CAVALIER       FAIR      52  50  93 NW5       29.66F
GRAFTON        FAIR      55  55 100 NW8       29.66F
CANDO          FAIR      48  48 100 W7        29.71F
FORT TOTTEN      N/A     55  54  96 W2        29.95
ROLLA          FAIR      50  50 100 CALM      29.72F
RUGBY          FAIR      50  50 100 W7        29.73S
 ***** THE ABOVE OBSERVATIONS ARE NON NWS ARE NOT QUALITY
        CONTROLLED AND MAY MIS-REPORT RAIN FOR SNOW...
$$

 *****  OTHER OBSERVATIONS SOUTHEAST NORTH DAKOTA *****

CITY           SKY/WX    TMP DP  RH WIND       PRES   REMARKS
COOPERSTOWN    NOT AVBL
VALLEY CITY    FAIR      54  54 100 W8        29.71S
OAKES            N/A     55  55 100 W6        29.73S
GWINNER        SUNNY     57  57 100 W6        29.73R
SHEYENNE NWR     N/A     55  54  95 CALM      29.95S
BUFFALO          N/A     55  51  87 CALM        N/A
WYNDMERE       NOT AVBL
 ***** THE ABOVE OBSERVATIONS ARE NON NWS ARE NOT QUALITY
       CONTROLLED AND MAY MIS-REPORT RAIN FOR SNOW...
$$

  *****  WEATHER ACROSS NORTHERN MINNESOTA  *****

CITY           SKY/WX    TMP DP  RH WIND       PRES   REMARKS
FLAG ISLAND    CLOUDY    61  57  88 W13       29.59S
WARROAD        MOCLDY    57  54  88 W5        29.62F
ROSEAU         LGT RAIN  61  55  82 NW3       29.63F
HALLOCK        CLOUDY    55  55 100 NW7       29.65F
THF RVR FALLS  CLOUDY    57  57 100 NW13      29.66R
HALSTAD          N/A     52  50  93 W3          N/A
FOSSTON        CLOUDY    55  55 100 W6        29.67R FOG
BAUDETTE       CLOUDY    59  57  93 VRB7      29.59F
WASKISH        CLOUDY    61  57  88 W9        29.62S
CROOKSTON      PTCLDY    54  54 100 N5        29.67S
$$
  *****  WEATHER ACROSS CENTRAL AND WEST MINNESOTA  *****

CITY           SKY/WX    TMP DP  RH WIND       PRES   REMARKS
BEMIDJI        MOCLDY    57  57  98 W7        29.65R
PARK RAPIDS    PTCLDY    57  56  96 W7        29.65R
WADENA         PTCLDY    59  57  94 W5        29.66R
DETROIT LAKES  MOCLDY    57  55  94 NW6       29.69S
MOORHEAD       MOCLDY    57  57 100 CALM      29.69S
FERGUS FALLS   CLOUDY    57  57 100 NW8       29.68S
ELBOW LAKE     FAIR      59  59 100 W5        29.69R FOG
MORRIS MN      CLOUDY    63  63 100 W7        29.68S
STAPLES        PTCLDY    57  57 100 W5        29.66R
WHEATON        CLOUDY    61  57  88 W5        29.71S
$$
  *****  WEATHER ELSEWHERE ACROSS MINNESOTA  *****

CITY           SKY/WX    TMP DP  RH WIND       PRES   REMARKS
DULUTH         LGT RAIN  65  62  90 NW8       29.58F
INTRNTL FALLS  CLOUDY    59  58  96 W9        29.58S
ELY            LGT RAIN  63  61  94 W3        29.57F
CLOQUET        LGT RAIN  64  63  94 W5        29.59S
BRAINERD       CLOUDY    63  61  93 NW6       29.63R
HIBBING        LGT RAIN  64  60  87 W3        29.59F
ALEXANDRIA     CLOUDY    64  62  93 W8        29.69R
SAINT CLOUD    TSTM      67  64  90 SW8       29.63S
MINNEAPOLIS    LGT RAIN  66  64  93 SW7       29.65R FOG
$$

  *****  WEATHER ACROSS SOUTH DAKOTA  *****

CITY           SKY/WX    TMP DP  RH WIND       PRES   REMARKS
SIOUX FALLS    LGT RAIN  63  61  93 NW8       29.71S
BROOKINGS      NOT AVBL
WATERTOWN      CLOUDY    60  60 100 W3        29.73S
HURON          MOCLDY    59  58  96 W5        29.73S
SISSETON         N/A     62  58  86 NW7       29.70R
ABERDEEN       MOCLDY    59  56  89 NW10      29.73S
MITCHELL       CLOUDY    61  60  97 NW3       29.74F
PIERRE         CLEAR     57  55  93 W9        29.79R
MOBRIDGE       CLEAR     54  53  97 CALM      29.76R
RAPID CITY     PTCLDY    49  46  90 NW7       29.90S
$$

  *****  SOME WEATHER IN NEARBY STATES *****

CITY           SKY/WX    TMP DP  RH WIND       PRES   REMARKS
GLASGOW MT     PTCLDY    52  49  89 W6        29.84R
GREAT FALLS MT PTCLDY    46  40  79 S8        29.93S
CHEYENNE WY    CLEAR     45  41  86 W9        30.08R
SCOTTSBLUFF NE CLEAR     50  48  93 N9        29.98F
OMAHA NE       CLOUDY    69  64  84 S8        29.72R
DES MOINES IA  CLOUDY    68  63  84 S13       29.71F
DAVENPORT IA   LGT RAIN  65  62  90 NE9       29.79F
CHICAGO IL     PTCLDY    74  67  78 S8        29.82F
EAU CLAIRE WI  CLOUDY    65  65 100 W3        29.66R
LA CROSSE WI   CLOUDY    66  62  87 CALM      29.65R
$$

  *****  SOME NATIONAL WEATHER *****

CITY           SKY/WX    TMP DP  RH WIND       PRES   REMARKS
LA GUARDIA NY  CLOUDY    76  70  82 CALM      29.98R
RALEIGH NC     MOCLDY    75  71  87 SW5       30.09R
ATLANTA GA     MOCLDY    75  70  84 CALM      30.11R
NEW ORLEANS LA MOCLDY    81  76  84 SE6       29.99F
OKLAHOMA CITY  PTCLDY    78  69  73 S21G28    29.79S
ALBUQUERQUE NM CLEAR     70  38  31 E5        30.07R
SALT LAKE CITY CLEAR     58  41  53 SE8       30.00S
LOS ANGELES CA MOCLDY    71  64  78 SE6       29.82R
BOISE ID       CLEAR     56  38  50 SE5       30.00S
SEATTLE WA     CLOUDY    61  54  77 SE5       30.08S
$$

*** WEATHER ACROSS MANITOBA...SASKATCHEWAN AND ONTARIO ***
                ***ONTARIO***

CITY           SKY/WX    TMP DP  RH WIND       PRES   REMARKS
GERALDTON      LGT RAIN N/A N/A N/A S9          N/A
THUNDER BAY    TSTM      63  61  94 SE5       29.57F
SIOUX LOOKOUT  DRIZZLE   61  61 100 W9        29.51S
TORONTO        PTCLDY    66  63  88 W3        29.97S
BIG TROUT LK   LGT RAIN  55  54  94 E5        29.52F FOG
PICKLE LAKE    NOT AVBL
DRYDEN         CLOUDY    59  57  94 W9        29.53S
KENORA         CLOUDY    59  57  94 NW9       29.59R
$$
                *** MANITOBA***

CITY           SKY/WX    TMP DP  RH WIND       PRES   REMARKS
BRANDON        CLEAR     48  46  93 NW6       29.70S
DAUPHIN        CLEAR     55  50  82 SW9       29.66R
ISLAND LAKE    MOCLDY    57  57 100 CALM      29.54S
PILOT MOUND      N/A     50  50 100 W3          N/A
THE PAS        PTCLDY    54  50  87 W8        29.59R
THOMPSON       PTCLDY    43  43 100 CALM      29.54S
WINNIPEG       PTCLDY    52  52 100 W7        29.65S
LYNN LAKE      CLEAR     45  43  93 MISG      29.57S
CHURCHILL      FOG       52  52 100 S5        29.51R VSB 1/4
GILLAM         FOG      N/A N/A N/A SW5         N/A  VSB 5/8
$$
                ***SASKATCHEWAN***

CITY           SKY/WX    TMP DP  RH WIND       PRES   REMARKS
ESTEVAN        CLOUDY    54  50  87 CALM      29.75F
KINDERSLEY     CLEAR     41  39  93 SW3       29.81R
LLOYDMINSTER   CLEAR     43  41  93 W12       29.76R
PRINCE ALBERT  CLOUDY    45  41  87 N9        29.68R THUNDER
REGINA         NOT AVBL


USA.gov is the U.S. government's official web portal to all federal, state and local government web resources and services.